Location: Allison Elementary School
(34.0784°N, 117.7317°W)
Time: 05:46:38
(UTC+00:00)

CZ-3 Stage 3 - Pass Details

Date: 15 November 2019
Orbit: 249 x 16017 km, 30.8° (Epoch: 12 December)

Event Time Altitude Azimuth Distance (km) Brightness Sun altitude
Rises 01:14:14 0° 279° (W) 7,698 8.4 -6.0°
Reaches altitude 10° 01:22:01 10° 274° (W) 4,547 7.3 -7.5°
Maximum altitude 01:30:29 38° 210° (SSW) 1,090 3.3 -9.2°
Drops below altitude 10° 01:33:22 10° 138° (SE) 1,527 3.3 -9.8°
Enters shadow 01:34:19 - 130° (SE) 1,931 3.8 -10.0°
